Weather History for KMCK - December, 2014

Change the Weather History Date:

Sunday, December 21, 2014

  Actual Average Record
Temperature  
Mean Temperature 37 °F 27 °F  
Max Temperature 47 °F 40 °F 66 °F (1933)
Min Temperature 26 °F 14 °F -19 °F (1983)
Degree Days  
Heating Degree Days 28    
Moisture  
Dew Point 30 °F    
Average Humidity 83    
Maximum Humidity 92    
Minimum Humidity 59    
Precipitation  
Precipitation 0.00 in 0.02 in 0.20 in (1963)
Month to date precipitation 0.89 0.44  
Year to date precipitation 23.79 22.33  
Sea Level Pressure  
Sea Level Pressure 29.72 in    
Wind  
Wind Speed 7 mph (SSW)    
Max Wind Speed 15 mph    
Max Gust Speed -    
Visibility 8 miles    
Events      
T = Trace of Precipitation, MM = Missing Value Source: NWS Daily Summary

Daily Weather History Graph

Daily Weather History Graph

Search for Another Location

Airport or City:

Trip Planner

Search our weather history database for the weather conditions in past years. The results will help you decide how hot, cold, wet, or windy it might be!

Date:

Astronomy

Dec. 21, 2014 Rise Set
Actual Time 8:01 AM CST 5:19 PM CST
Civil Twilight 7:30 AM CST 5:50 PM CST
Nautical Twilight 6:56 AM CST 6:24 PM CST
Astronomical Twilight 6:23 AM CST 6:57 PM CST
Moon 7:19 AM CST (12/21) 5:28 PM CST (12/21)
Length of Visible Light 10h 19m
Length of Day
9h 18m
Waning Crescent, 0% of the Moon is Illuminated
Dec 21
Waning Crescent
Dec 21
New
Dec 28
First Quarter
Jan 4
Full
Jan 13
Last Quarter

Hourly Weather History & Observations

Time (CST) Temp. Windchill Dew Point Humidity Pressure Visibility Wind Dir Wind Speed Gust Speed Precip Events Conditions
12:53 AM 30.0 °F 23.2 °F 26.1 °F 85% 29.96 in 10.0 mi WSW 6.9 mph - N/A   Clear
1:53 AM 28.0 °F 22.8 °F 24.1 °F 85% 29.94 in 10.0 mi West 4.6 mph - N/A   Scattered Clouds
2:53 AM 30.0 °F 22.4 °F 26.1 °F 85% 29.91 in 10.0 mi WSW 8.1 mph - N/A   Overcast
3:53 AM 32.0 °F 28.7 °F 27.0 °F 82% 29.89 in 10.0 mi WSW 3.5 mph - N/A   Scattered Clouds
4:53 AM 30.0 °F - 28.0 °F 92% 29.87 in 10.0 mi Calm Calm - N/A   Mostly Cloudy
5:53 AM 28.9 °F - 26.1 °F 89% 29.85 in 9.0 mi Calm Calm - N/A   Mostly Cloudy
6:53 AM 27.0 °F 20.5 °F 25.0 °F 92% 29.84 in 10.0 mi SW 5.8 mph - N/A   Scattered Clouds
7:53 AM 27.0 °F 18.7 °F 25.0 °F 92% 29.83 in 9.0 mi South 8.1 mph - N/A   Clear
8:53 AM 30.9 °F 23.5 °F 28.0 °F 89% 29.81 in 10.0 mi SW 8.1 mph - N/A   Clear
9:53 AM 35.1 °F 32.2 °F 30.0 °F 82% 29.78 in 10.0 mi South 3.5 mph - N/A   Clear
10:53 AM 42.1 °F 36.1 °F 32.0 °F 67% 29.75 in 10.0 mi South 10.4 mph - N/A   Clear
11:53 AM 45.0 °F 39.7 °F 32.0 °F 60% 29.71 in 10.0 mi South 10.4 mph - N/A   Clear
12:53 PM 46.9 °F - 33.1 °F 59% 29.65 in 10.0 mi South 15.0 mph - N/A   Clear
1:53 PM 42.1 °F 35.2 °F 32.0 °F 67% 29.63 in 10.0 mi South 12.7 mph - N/A   Mostly Cloudy
2:53 PM 39.2 °F 31.6 °F 32.0 °F 75% 29.57 in 10.0 mi South 12.7 mph - N/A   Mostly Cloudy
3:53 PM 37.9 °F 31.5 °F 32.0 °F 79% 29.62 in 10.0 mi South 9.2 mph - N/A   Overcast
4:53 PM 37.9 °F 31.5 °F 32.0 °F 79% 29.59 in 8.0 mi SSE 9.2 mph - N/A   Overcast
5:53 PM 37.0 °F 31.0 °F 33.1 °F 86% 29.59 in 8.0 mi South 8.1 mph - N/A   Overcast
6:53 PM 37.0 °F 32.4 °F 34.0 °F 89% 29.59 in 6.0 mi SSW 5.8 mph - N/A   Overcast
7:53 PM 37.9 °F 33.5 °F 34.0 °F 86% 29.58 in 6.0 mi South 5.8 mph - N/A   Mostly Cloudy
8:53 PM 37.9 °F - 34.0 °F 86% 29.56 in 6.0 mi Calm Calm - N/A   Overcast
9:53 PM 35.1 °F 30.1 °F 33.1 °F 92% 29.55 in 4.0 mi ESE 5.8 mph - N/A   Overcast
10:53 PM 34.0 °F 28.8 °F 32.0 °F 92% 29.55 in 5.0 mi WSW 5.8 mph - N/A   Mostly Cloudy
11:53 PM 32.0 °F 24.8 °F 30.0 °F 92% 29.55 in 4.0 mi WSW 8.1 mph - N/A   Clear